Simultaneous Nadir Overpasses (SNOs) Predictions

Prediction of SNOs between GOES-16 and LANDSAT-8 Satellite Orbit:

Table of predicted SNOs for the next 14.0 days since TLE Epoch: 12/9/2023
Index Date Time (GOES-16) GOES-16 Lat,Lon LANDSAT-8 Lat,Lon Distance(km) Time Diff (sec)
1 12/10/2023 03:03:40 0.04, -75.20 0.49, -73.20 227.73 80
2 12/10/2023 15:27:36 -0.04, -75.22 0.60, -78.36 356.05 80
3 12/12/2023 15:12:51 -0.04, -75.22 -0.01, -75.41 20.33 75
4 12/14/2023 15:00:36 -0.03, -75.23 -0.64, -72.46 315.73 80
5 12/15/2023 03:24:40 0.03, -75.21 -0.49, -77.64 277.06 80
6 12/17/2023 03:09:50 0.03, -75.21 0.15, -74.69 59.64 80
7 12/19/2023 02:57:39 0.02, -75.23 0.75, -71.73 397.22 80
8 12/19/2023 15:18:55 -0.02, -75.26 0.33, -76.89 186.14 80
9 12/21/2023 15:09:24 -0.02, -75.28 -0.28, -73.94 152.48 80
10 12/22/2023 03:30:49 0.02, -75.27 -0.78, -79.14 439.42 80
